FW0009 Weather Reports


time (UTC)temp
C
wind
direction
speed
KPH
gust
KPH
rain 1hr
cm
rain 24hr
cm
rain mn
cm
humidity
%
barometer
mb
20260906234503 15 77 0.0 6.4 0.00 0.03 0.03 87 1017.2
20260906233102 15 76 0.0 6.4 0.00 0.03 0.03 89 1017.3
20260906231502 15 46 3.2 9.7 0.00 0.03 0.03 89 1017.5
20260906230104 15 101 0.0 6.4 0.00 0.03 0.03 90 1017.6
20260906224607 15 79 0.0 8.0 0.00 0.03 0.03 90 1017.5
20260906223003 14 148 1.6 8.0 0.00 0.03 0.03 90 1017.8
20260906221602 15 144 3.2 8.0 0.00 0.03 0.03 89 1017.7
20260906220003 15 138 1.6 4.8 0.00 0.03 0.03 92 1017.8
20260906214503 14 150 1.6 4.8 0.00 0.03 0.03 93 1017.8
20260906213106 14 148 0.0 6.4 0.00 0.03 0.03 91 1018.1
20260906211503 14 144 0.0 3.2 0.03 0.03 0.03 91 1018.2
20260906210115 14 144 0.0 3.2 0.03 0.03 0.03 91 1018.1
20260906204606 14 147 0.0 3.2 0.03 0.03 0.03 90 1018.2
20260906203004 14 146 1.6 6.4 0.03 0.03 0.03 88 1018.6
20260906201603 15 102 3.2 9.7 0.00 0.00 0.00 85 1018.6
20260906200002 15 178 3.2 9.7 0.00 0.00 0.00 82 1018.7
20260906194503 15 136 3.2 11.3 0.00 0.00 0.00 80 1018.7
20260906193103 15 169 4.8 12.9 0.00 0.00 0.00 80 1018.8
20260906191505 15 143 3.2 9.7 0.00 0.00 0.00 80 1018.9
20260906184609 15 184 6.4 12.9 0.00 0.00 0.00 78 1019.1
20260906183002 16 132 4.8 11.3 0.00 0.00 0.00 77 1019.2
20260906181604 16 170 4.8 11.3 0.00 0.00 0.00 75 1019.3
20260906180002 17 196 4.8 14.5 0.00 0.00 0.00 74 1019.4
20260906174502 16 150 4.8 12.9 0.00 0.00 0.00 76 1019.5
20260906173107 15 188 6.4 14.5 0.00 0.00 0.00 78 1019.4
20260906171503 15 176 4.8 12.9 0.00 0.00 0.00 77 1019.4
20260906164617 14 164 1.6 9.7 0.00 0.00 0.00 81 1019.4
20260906163002 14 160 1.6 11.3 0.00 0.00 0.00 81 1019.6
20260906161602 15 208 4.8 14.5 0.00 0.00 0.00 79 1019.9
20260906160009 15 157 6.4 11.3 0.00 0.00 0.00 81 1019.8
20260906154504 14 170 6.4 11.3 0.00 0.00 0.00 83 1019.7
20260906153103 14 85 4.8 12.9 0.00 0.00 0.00 82 1019.8
20260906151503 13 84 3.2 9.7 0.00 0.00 0.00 88 1019.9
20260906144629 12 155 1.6 9.7 0.00 0.00 0.00 91 1020.3
20260906143002 12 138 3.2 9.7 0.00 0.00 0.00 92 1020.3
20260906141605 11 160 1.6 8.0 0.00 0.00 0.00 94 1020.3
20260906140007 11 136 3.2 9.7 0.00 0.00 0.00 95 1020.5
20260906134503 11 164 1.6 8.0 0.00 0.00 0.00 95 1020.5
20260906133108 11 121 1.6 6.4 0.00 0.00 0.00 95 1020.6
20260906131506 11 142 1.6 4.8 0.00 0.00 0.00 95 1020.7
20260906130103 11 148 0.0 6.4 0.00 0.00 0.00 95 1020.9
20260906124605 11 138 1.6 4.8 0.00 0.00 0.00 95 1020.9
20260906121602 11 109 1.6 8.0 0.00 0.00 0.00 94 1020.5
20260906120003 11 144 1.6 8.0 0.00 0.00 0.00 94 1020.5
20260906114502 11 99 0.0 4.8 0.00 0.00 0.00 94 1020.5
20260906113102 11 134 0.0 6.4 0.00 0.00 0.00 94 1020.6
20260906111506 11 74 1.6 6.4 0.00 0.00 0.00 94 1020.9
20260906110111 11 95 1.6 8.0 0.00 0.00 0.00 94 1021.0
20260906104604 11 99 3.2 8.0 0.00 0.00 0.00 93 1021.1
20260906103002 11 106 0.0 4.8 0.00 0.00 0.00 93 1021.3
20260906101603 11 114 0.0 6.4 0.00 0.00 0.00 93 1021.4
20260906100003 11 96 0.0 3.2 0.00 0.00 0.00 93 1021.3
20260906094503 11 93 0.0 1.6 0.00 0.00 0.00 93 1021.4
20260906093118 11 93 0.0 1.6 0.00 0.00 0.00 93 1021.6
20260906091505 11 93 0.0 0.0 0.00 0.00 0.00 93 1021.5
20260906090128 11 93 0.0 3.2 0.00 0.00 0.00 93 1021.6
20260906084602 11 92 0.0 3.2 0.00 0.00 0.00 93 1022.0
20260906083003 11 92 0.0 1.6 0.00 0.00 0.00 93 1022.0
20260906081603 11 92 0.0 1.6 0.00 0.00 0.00 93 1022.1
20260906080002 11 93 0.0 1.6 0.00 0.00 0.00 92 1022.2
20260906074503 11 93 0.0 1.6 0.00 0.00 0.00 92 1022.2
20260906073105 11 93 0.0 3.2 0.00 0.00 0.00 92 1022.5
20260906071502 11 93 0.0 6.4 0.00 0.00 0.00 91 1022.5
20260906064607 11 94 0.0 3.2 0.00 0.00 0.00 90 1022.4
20260906063003 11 94 0.0 3.2 0.00 0.00 0.00 90 1022.5
20260906061604 11 94 0.0 3.2 0.00 0.00 0.00 90 1022.6
20260906060006 11 94 0.0 1.6 0.00 0.00 0.00 90 1022.6
20260906054502 11 94 0.0 3.2 0.00 0.00 0.00 90 1022.5
20260906053102 11 86 1.6 4.8 0.00 0.00 0.00 89 1022.6
20260906051502 11 58 0.0 3.2 0.00 0.00 0.00 90 1022.7
20260906050131 11 49 0.0 3.2 0.00 0.00 0.00 90 1022.6
20260906044602 11 50 0.0 3.2 0.00 0.00 0.00 90 1022.5
20260906043003 11 11 0.0 3.2 0.00 0.00 0.00 90 1022.5
20260906041603 11 9 0.0 3.2 0.00 0.00 0.00 89 1022.4
20260906040004 11 360 0.0 6.4 0.00 0.00 0.00 89 1022.4
20260906034503 11 14 0.0 1.6 0.00 0.00 0.00 89 1022.5
20260906033103 11 15 0.0 3.2 0.00 0.00 0.00 89 1022.4
20260906031502 11 32 0.0 1.6 0.00 0.00 0.00 89 1022.6
20260906030134 12 32 0.0 3.2 0.00 0.00 0.00 88 1022.5
20260906024604 12 32 0.0 3.2 0.00 0.00 0.00 87 1022.4
20260906023002 12 94 0.0 1.6 0.00 0.00 0.00 87 1022.4
20260906021613 12 94 0.0 1.6 0.00 0.00 0.00 86 1022.2
20260906020004 12 94 0.0 0.0 0.00 0.03 0.00 85 1022.2
20260906014506 12 94 0.0 1.6 0.00 0.03 0.00 85 1022.2
20260906013103 12 78 1.6 6.4 0.00 0.03 0.00 85 1022.0
20260906011503 12 62 1.6 6.4 0.00 0.03 0.00 86 1021.9
20260906004603 12 336 0.0 0.0 0.00 0.03 0.00 86 1022.0
20260906003004 12 336 0.0 1.6 0.00 0.03 0.00 86 1022.1
20260906001603 12 336 0.0 1.6 0.00 0.03 0.00 86 1021.9
20260906000003 12 336 0.0 6.4 0.00 0.03 0.00 85 1022.0